Theta_e
313 311 309 308 308 309 312 313 317 317 317 317 317 317 318 318 319 320 321 320 321 321 321 321 322 322 321 319 318 316 315 314 312 310 309 303 303 302 302 301 301 301 300 301 299
313 312 309 309 310 311 313 315 317 316 317 317 317 317 317 318 319 320 319 320 321 321 321 322 321 320 319 316 315 313 316 314 309 306 306 304 304 302 302 300 299 299 299 299 299
312 312 309 310 311 313 314 317 317 317 317 317 317 317 317 317 318 318 320 320 321 321 321 321 319 319 315 313 310 308 313 307 306 305 305 303 302 302 301 302 300 299 299 299 299
312 311 311 314 315 314 315 317 317 317 317 317 317 317 317 317 316 318 319 320 320 320 320 318 318 316 310 310 309 309 306 307 306 305 305 304 303 302 302 303 304 302 301 300 299
312 311 315 316 315 315 317 317 316 318 317 317 316 317 317 317 316 318 319 319 320 320 320 318 316 314 310 309 308 307 305 306 305 305 305 304 303 303 302 303 302 301 300 300 300
311 314 315 315 316 316 316 316 318 316 317 317 317 316 316 315 317 318 319 318 318 318 317 317 316 315 309 305 307 305 305 304 305 304 304 304 302 302 301 302 301 301 300 300 299
312 315 315 316 316 316 316 317 317 317 317 317 317 316 317 315 316 317 318 317 317 317 317 317 316 315 310 306 306 306 306 305 304 304 303 303 303 302 302 301 301 300 300 300 299
315 315 315 316 315 317 317 317 318 317 317 317 317 317 316 316 316 317 318 317 317 317 317 316 315 314 310 308 308 308 308 312 306 303 302 305 312 302 302 301 300 300 300 300 299
315 315 316 315 316 317 317 317 317 317 317 317 316 317 316 316 316 317 317 317 317 317 317 316 316 311 310 310 311 309 313 312 311 303 302 304 309 301 301 300 300 300 300 299 299
315 316 315 315 316 316 317 317 317 317 317 317 316 316 316 315 316 316 316 316 317 316 316 315 313 308 307 311 312 314 312 310 312 307 303 303 304 301 300 300 301 300 300 299 299
316 316 315 315 316 316 317 317 316 315 315 314 315 315 315 315 315 316 317 317 316 315 310 309 309 310 309 308 310 310 310 310 308 305 305 305 305 305 301 298 298 300 299 299 299
316 316 316 315 315 317 317 317 315 314 315 314 314 314 314 315 315 316 316 315 314 310 309 309 310 308 308 307 308 309 310 309 307 305 305 306 307 305 301 299 300 300 300 299 299
316 316 316 316 315 317 317 315 315 316 315 315 314 315 315 315 314 314 315 314 310 309 307 310 309 309 309 308 307 308 309 309 308 305 304 304 307 304 300 298 299 299 300 300 299
317 316 316 317 317 316 316 316 317 316 308 312 315 315 315 315 313 313 314 314 311 310 309 310 309 309 308 308 307 308 308 307 308 308 310 304 313 307 301 300 298 299 299 299 299
317 316 316 317 316 317 317 317 317 316 316 313 315 315 315 315 313 313 314 314 311 311 311 311 310 308 308 308 308 309 307 307 307 307 307 307 309 310 300 305 302 299 299 299 298
316 316 316 317 316 316 317 316 316 314 317 314 314 314 313 313 313 313 313 314 311 310 310 309 310 308 308 307 307 306 306 305 304 307 312 307 308 312 308 305 302 299 299 298 298
316 317 317 317 317 316 317 316 313 316 314 315 314 313 312 312 311 309 307 306 310 313 310 309 311 308 307 306 305 306 307 313 314 313 314 305 307 311 305 301 300 300 299 297 297
316 317 317 317 317 317 317 315 319 315 313 313 313 312 313 312 311 309 309 308 306 307 307 308 308 308 306 305 306 306 307 311 314 313 311 303 309 312 300 297 298 298 298 297 295
317 317 317 317 317 317 316 315 315 313 312 313 314 315 314 313 312 311 309 308 308 306 310 307 308 307 306 305 305 306 307 303 306 302 305 306 305 305 297 297 296 297 296 295 295
317 317 317 317 316 316 313 315 314 313 313 313 315 314 315 313 314 312 311 308 309 306 306 306 309 308 307 306 304 305 302 308 305 312 313 309 306 310 306 303 297 295 295 295 295
317 316 316 317 316 316 312 312 312 314 314 313 312 313 313 313 312 312 312 308 307 306 305 304 306 307 307 307 307 304 304 301 303 305 310 309 312 304 303 301 300 297 296 296 295
317 315 316 316 316 310 312 311 313 313 314 314 312 312 312 311 312 311 311 310 306 306 306 303 303 306 307 303 302 304 305 303 308 307 301 302 307 300 299 299 299 299 297 296 295
317 319 316 316 313 311 311 313 313 313 313 313 313 312 312 312 314 311 310 306 305 305 304 303 304 308 311 306 303 304 302 300 299 300 302 306 311 297 296 297 299 298 297 295 295
320 314 316 317 316 312 312 313 313 313 313 313 312 312 312 313 311 311 309 305 305 305 305 304 302 307 312 311 306 305 302 299 302 303 303 303 307 308 301 298 298 297 296 295 295
320 318 312 312 314 312 311 311 312 313 312 312 312 310 311 312 312 312 309 306 305 306 303 303 307 303 303 303 304 304 305 300 301 302 308 309 302 307 306 301 299 298 295 294 294
318 318 316 314 313 310 310 310 312 311 311 312 311 310 309 310 310 310 309 307 307 304 302 300 307 302 304 303 302 303 302 303 301 300 299 303 304 305 303 299 297 297 295 294 294
313 317 317 313 311 311 311 311 311 312 311 311 311 310 310 310 310 310 309 308 308 304 302 302 303 304 310 303 303 309 306 302 302 300 301 306 308 298 298 297 297 297 296 296 296
Wind_Speed
11 11 10 13 13 14 15 15 15 13 14 13 12 13 18 20 14 10 15 13 10 9 10 14 10 8 12 16 11 5 5 4 7 8 6 12 5 7 6 10 6 7 7 10 17
11 10 12 13 14 12 14 15 13 12 10 8 9 8 10 10 15 16 14 9 7 6 5 2 4 6 9 8 8 8 4 3 2 5 7 13 6 12 7 8 3 10 15 18 13
11 11 12 12 13 12 14 13 12 10 7 7 6 4 4 5 7 15 13 8 7 7 5 5 3 4 9 9 11 6 4 4 3 5 19 12 10 7 11 4 11 22 22 17 13
11 11 13 15 12 12 13 12 10 6 4 3 3 2 4 2 4 13 12 10 8 7 9 6 1 4 7 5 6 7 8 4 9 10 9 10 12 6 8 2 8 18 16 16 13
11 12 13 12 13 13 11 9 6 6 6 6 3 3 4 12 10 12 11 9 7 6 7 5 6 7 5 7 6 7 4 9 10 9 10 12 5 4 6 6 16 19 16 14 12
12 14 13 14 12 11 9 7 7 8 9 9 10 8 7 15 10 13 7 5 7 8 11 6 10 16 15 8 6 7 14 12 6 6 7 4 4 3 7 17 21 19 17 15 12
14 15 14 11 9 10 9 9 9 8 10 11 11 12 16 10 9 10 9 13 13 11 9 10 5 2 9 9 13 12 5 3 3 5 3 4 3 6 14 22 21 20 18 16 13
15 15 12 8 10 11 10 9 6 6 7 6 5 4 8 9 8 7 9 12 16 17 17 16 14 19 8 18 5 3 3 1 3 6 2 2 5 6 18 25 25 22 21 17 15
15 13 9 10 9 10 7 6 7 5 4 3 4 7 6 6 5 8 10 11 10 12 12 10 14 12 6 4 3 4 1 2 2 9 4 3 4 6 20 25 25 25 23 20 18
14 11 11 9 8 7 7 6 7 2 3 3 5 8 4 4 6 5 4 4 4 6 4 5 6 4 3 3 1 2 1 3 4 4 4 4 15 6 20 26 27 26 23 22 21
13 13 10 8 8 5 6 3 1 4 14 9 6 9 6 6 9 5 1 2 4 8 5 7 6 2 1 1 2 3 2 3 3 4 4 8 13 10 19 24 23 27 25 25 22
13 11 9 6 5 2 4 0 2 6 9 9 8 9 7 3 2 8 4 3 4 3 4 5 2 2 3 2 2 2 2 3 3 3 4 5 15 12 14 19 29 27 28 26 23
11 9 8 4 2 2 4 3 6 2 3 4 6 5 4 4 6 10 6 4 5 4 4 4 2 1 2 2 1 2 2 2 4 1 2 6 7 3 2 11 15 26 27 26 26
9 9 7 2 1 9 10 6 3 2 4 5 3 4 3 3 4 10 6 3 5 3 3 3 1 2 2 1 2 2 1 2 3 2 3 4 5 3 2 7 9 19 25 24 23
9 8 7 1 3 5 4 3 1 1 3 0 2 2 5 4 2 7 9 3 4 3 3 1 1 2 1 1 2 3 3 1 1 1 3 3 1 6 3 4 4 14 22 21 20
9 6 6 2 2 4 0 6 1 5 3 0 1 3 2 6 3 3 3 6 4 3 4 1 1 1 1 1 1 1 1 3 3 2 1 1 1 5 2 3 2 3 15 20 20
9 5 3 2 1 3 3 5 5 3 2 1 1 2 3 4 4 6 5 6 2 1 4 4 1 1 2 1 0 3 4 3 4 3 3 1 1 9 3 2 4 6 7 19 21
8 5 2 2 1 2 2 5 1 1 4 0 2 2 3 2 3 5 3 2 4 2 3 2 3 1 3 2 1 3 2 3 4 3 5 1 5 4 2 3 6 8 7 19 21
7 6 5 2 1 1 1 3 5 5 3 6 2 2 1 1 2 3 2 3 2 0 3 2 2 1 4 1 2 0 3 2 4 1 2 3 6 7 2 5 5 4 11 20 22
6 5 8 7 4 2 4 4 3 3 3 2 5 3 4 3 2 2 3 2 3 1 2 4 2 1 1 3 6 0 4 2 3 2 4 4 5 5 5 5 7 10 16 21 21
5 3 4 9 5 3 3 6 4 4 4 4 6 4 3 4 5 3 4 2 4 3 2 4 2 1 1 3 5 2 0 4 3 2 3 4 7 6 6 5 7 16 20 24 23
4 1 3 7 3 1 3 4 2 4 4 2 3 2 6 6 4 4 6 2 7 6 5 3 4 3 4 1 0 1 4 4 3 4 0 0 7 3 6 9 10 13 16 23 22
3 3 4 8 3 2 2 2 4 5 4 4 4 2 1 6 2 3 3 3 5 6 6 7 0 3 4 2 2 3 4 4 4 2 6 4 7 4 6 11 12 12 14 23 24
2 1 4 8 4 5 4 4 3 6 3 3 3 3 3 3 1 5 4 3 4 4 4 4 3 5 6 5 3 4 5 5 4 3 3 8 9 13 6 9 14 14 15 23 24
4 2 2 2 3 3 5 5 4 5 4 6 1 5 6 4 3 4 3 2 2 5 3 3 5 4 6 9 4 6 7 9 9 6 8 4 7 17 13 8 12 13 17 23 25
3 2 1 2 2 5 3 7 9 4 7 5 5 6 6 6 7 8 7 5 6 4 5 1 2 2 5 2 6 6 9 11 11 4 12 19 22 22 20 9 9 11 21 27 27
6 5 2 1 3 3 4 5 7 8 8 3 8 6 5 6 5 3 6 5 7 7 6 4 4 1 5 2 7 7 7 11 6 6 6 7 11 4 5 11 13 16 23 27 26
Wind_Direction
112 116 120 117 121 125 122 123 121 118 118 111 106 110 97 86 84 87 58 35 58 81 98 108 93 61 58 62 58 79 75 139 163 173 156 167 147 161 158 145 170 186 175 167 164
120 125 117 119 124 130 126 128 121 120 116 104 114 121 115 99 79 73 39 43 57 79 110 135 48 54 62 39 33 55 81 127 103 136 152 163 168 157 153 144 109 142 147 152 162
129 126 123 123 127 132 128 126 121 115 94 100 116 127 104 113 73 23 40 53 50 53 27 12 1 48 66 40 19 31 94 137 36 123 144 143 144 169 151 196 193 170 159 164 170
124 126 127 127 130 132 131 127 115 87 63 80 94 117 46 97 78 17 35 41 48 24 7 4 321 71 63 52 29 93 54 90 123 122 130 147 147 152 177 183 185 169 163 167 176
127 129 132 131 134 130 127 120 92 70 74 68 94 127 87 80 32 34 32 30 28 6 0 11 78 95 86 90 71 78 107 84 120 121 123 141 159 173 224 187 163 166 172 178 185
130 132 129 134 131 126 123 110 90 92 77 74 86 99 112 81 54 34 26 352 36 30 53 76 93 104 87 58 52 107 109 114 121 129 148 148 164 179 192 163 167 177 183 190 197
135 133 139 130 125 128 123 110 105 97 89 92 93 99 84 82 67 53 46 56 54 53 85 66 65 101 100 104 110 114 88 101 153 167 171 152 197 224 186 176 181 189 194 198 205
136 144 142 133 132 129 118 109 96 96 106 87 86 114 84 81 78 59 63 74 67 71 70 74 89 83 77 115 83 70 74 93 187 179 172 145 267 183 187 185 195 200 203 205 214
142 147 142 144 136 137 117 107 82 81 115 61 107 117 100 89 90 71 75 75 59 55 53 58 72 88 98 88 63 20 175 239 257 202 141 196 262 186 191 198 206 209 210 210 218
147 144 145 139 142 143 126 106 68 79 129 75 88 103 106 74 70 66 60 40 31 16 42 46 64 80 46 60 234 236 256 258 260 195 206 203 256 213 200 205 216 218 216 216 222
147 148 149 145 145 135 144 115 331 78 76 73 78 88 98 102 65 52 74 43 29 45 39 26 64 81 170 216 158 135 185 256 248 176 201 235 263 251 214 214 225 225 222 222 226
152 157 156 160 164 85 166 19 68 127 78 69 82 82 72 94 98 46 55 55 55 56 352 28 91 202 157 47 173 183 218 266 265 149 198 314 277 255 204 222 225 226 227 228 225
159 165 163 160 188 315 171 125 102 67 94 50 58 52 44 46 50 20 38 68 78 62 20 127 185 245 173 35 48 207 198 249 251 346 219 311 282 278 254 240 240 237 242 239 233
163 168 167 112 59 126 115 105 69 69 74 312 1 20 14 99 63 29 37 63 48 137 123 105 338 125 107 218 131 309 231 300 310 16 288 4 293 302 319 276 234 236 233 234 229
164 174 175 62 135 148 117 18 15 127 24 255 1 35 33 85 114 13 33 63 100 120 109 307 48 57 134 260 150 265 17 340 25 128 9 20 346 270 348 310 272 238 232 228 220
169 174 183 241 152 184 316 357 19 44 265 124 352 357 56 31 44 17 68 71 88 94 42 101 79 81 266 354 118 346 92 56 53 78 322 344 66 283 259 221 285 301 229 214 207
174 168 176 207 193 207 278 329 35 127 20 228 158 50 74 10 38 32 33 20 67 48 358 346 266 48 16 31 9 53 36 337 356 1 256 280 266 254 242 233 249 272 236 202 200
188 184 159 184 178 252 285 46 231 216 204 9 125 85 99 2 28 26 75 63 35 70 95 98 323 42 1 76 158 33 107 132 296 300 301 12 235 258 172 229 260 261 237 196 196
210 217 224 233 245 245 176 65 217 202 170 157 71 102 2 49 122 87 68 171 202 95 141 135 281 71 57 83 57 19 49 155 100 128 311 265 287 273 235 255 256 237 187 192 198
223 240 246 241 250 239 84 230 221 201 155 147 177 174 188 217 160 172 190 198 176 196 213 197 356 79 142 115 51 167 149 85 37 315 299 286 281 249 284 265 229 221 203 200 201
227 249 246 224 218 187 175 226 235 215 185 167 200 146 187 191 187 207 191 185 192 172 173 142 109 258 148 189 175 76 35 50 112 150 211 299 273 216 233 221 230 240 222 210 207
206 252 260 199 164 92 171 200 205 188 188 202 143 135 174 166 169 207 209 233 174 170 163 196 139 253 220 134 19 168 192 161 140 211 173 124 271 187 226 246 254 266 237 216 212
200 247 241 194 170 227 252 250 226 177 207 185 185 192 160 169 202 193 190 161 182 174 168 186 98 353 352 31 7 224 191 128 99 76 203 165 258 179 235 259 262 258 231 208 204
231 3 203 197 214 147 169 226 219 209 202 179 151 132 119 151 109 204 193 216 202 201 167 153 147 173 204 212 147 208 191 182 152 160 182 232 282 285 255 251 258 245 224 207 206
208 238 195 254 269 202 182 153 163 207 216 193 208 212 172 157 164 207 155 145 230 177 147 161 221 187 253 249 218 228 210 181 198 198 205 280 224 274 286 273 288 255 214 203 203
211 188 177 232 261 167 189 218 193 182 161 231 204 183 183 171 191 194 158 196 200 185 174 127 250 174 281 171 192 259 224 203 221 233 261 265 279 276 275 265 262 235 208 207 209
215 235 244 216 156 135 224 220 222 173 212 209 196 133 182 220 182 143 154 127 173 154 176 153 151 109 270 6 313 293 222 185 190 205 178 210 246 176 255 257 262 239 218 219 215